Terminal Aerodrome Forecast
Issued by NWS

Home | Current Version | Previous Version | Graphics & Text | Print | Product List | Glossary On
Versions: 1 2 3 4 5 6 7 8 9 10 11 12 13 14 15 16 17 18 19
595
FTUS43 KBIS 231726
TAFJMS
TAF
KJMS 231726Z 2318/2418 01018G27KT P6SM SCT025 OVC035
      TEMPO 2318/2320 BKN025
     FM232200 02018G26KT P6SM BKN035
     FM240000 02011KT P6SM BKN045
     FM240200 VRB06KT P6SM BKN070
     FM241600 15010KT P6SM FEW250=

USA.gov is the U.S. government's official web portal to all federal, state and local government web resources and services.